User: anonymous   Login
Location: Caltech
(34.1382°N, 118.1253°W)
Time: 21:47:59
(UTC-07:00)
Language:

PAYLOAD A - Orbit

View from above orbital plane
View from above orbital plane
View from above satellite
View from above satellite

Ground track
Ground track

The orbit data is extracted from the following two-line orbital elements,

1 27840U 03031A   17235.54843135 -.00000013  00000-0  97383-5 0  9999
2 27840  98.2086 230.1673 0096973 276.1222  82.8925 14.38886181742997
Epoch (UTC): 23 August 2017 13:09:44
Eccentricity: 0.0096973
inclination: 98.2086°
perigee height: 693 km
apogee height: 831 km
right ascension of ascending node: 230.1673°
argument of perigee: 276.1222°
revolutions per day: 14.38886181
mean anomaly at epoch: 82.8925°
orbit number at epoch: 74299

The dashed part of the orbit path shows where the satellite is in the earth's shadow,  

DLR